This demonstration page uses our WeatherBlox Daily Observations layout. Learn more.

Left ArrowRight Arrow

38.20091, -84.87328

Hourly Observations for February 17, 2020

Temp ( °F °C ) Dew Point ( °F °C ) Humidity (%) Winds ( mph kmh ) Pressure ( in mb ) Visibility ( mi km ) Precip ( " mm )
12:53 am 00:53 Clear 29 -1.7 26 -3.3 89 89 Calm 30.11 1020 10 16 0.00 0.00
1:53 am 01:53 Clear 28 -2.2 25 -3.9 88 88 Calm 30.11 1020 10 16 0.00 0.00
2:53 am 02:53 Clear 29 -1.7 25 -3.9 85 85 Calm 30.12 1020 10 16 0.00 0.00
3:53 am 03:53 Clear 28 -2.2 25 -3.9 88 88 Calm 30.11 1020 10 16 0.00 0.00
4:53 am 04:53 Clear 28 -2.2 25 -3.9 88 88 Calm 30.11 1020 10 16 0.00 0.00
5:53 am 05:53 Clear 30 -1.1 26 -3.3 85 85 E 6 9 30.11 1020 10 16 0.00 0.00
6:53 am 06:53 Clear 33 0.6 28 -2.2 82 82 E 3 6 30.13 1020 10 16 0.00 0.00
7:53 am 07:53 Sunny 34 1.1 30 -1.1 85 85 ENE 5 7 30.14 1021 10 16 0.00 0.00
8:53 am 08:53 Partly Cloudy 37 2.8 31 -0.6 79 79 E 9 15 30.14 1021 10 16 0.00 0.00
9:53 am 09:53 Sunny 41 5 31 -0.6 67 67 E 10 17 30.14 1021 10 16 0.00 0.00
10:53 am 10:53 Partly Cloudy 46 7.8 33 0.6 61 61 E 8 13 30.14 1021 10 16 0.00 0.00
11:53 am 11:53 Mostly Cloudy 50 10 34 1.1 54 54 E 10 17 30.11 1020 10 16 0.00 0.00
12:53 pm 12:53 Mostly Cloudy 54 12.2 37 2.8 53 53 SE 8 13 30.08 1019 10 16 0.00 0.00
1:53 pm 13:53 Sunny 57 13.9 38 3.3 49 49 SE 13 20 30.03 1017 10 16 0.00 0.00
2:53 pm 14:53 Mostly Cloudy 56 13.3 37 2.8 49 49 S 10 17 30.01 1016 10 16 0.00 0.00
3:53 pm 15:53 Sunny 56 13.3 38 3.3 51 51 SE 10 17 30.00 1016 10 16 0.00 0.00
4:53 pm 16:53 Sunny 57 13.9 39 3.9 51 51 SE 9 15 29.98 1015 10 16 0.00 0.00
5:53 pm 17:53 Sunny 54 12.2 39 3.9 57 57 E 6 9 29.97 1015 10 16 0.00 0.00
6:53 pm 18:53 Mostly Clear 51 10.6 38 3.3 61 61 ESE 6 9 29.96 1015 10 16 0.00 0.00
7:53 pm 19:53 Clear 52 11.1 39 3.9 61 61 SE 9 15 29.95 1014 10 16 0.00 0.00
8:53 pm 20:53 Clear 51 10.6 39 3.9 64 64 SE 6 9 29.93 1014 10 16 0.00 0.00
9:53 pm 21:53 Clear 48 8.9 38 3.3 68 68 Calm 29.93 1014 10 16 0.00 0.00
10:53 pm 22:53 Clear 53 11.7 39 3.9 59 59 S 10 17 29.91 1013 10 16 0.00 0.00
11:53 pm 23:53 Cloudy 55 12.8 43 6.1 64 64 SSW 10 17 29.93 1014 10 16 0.00 0.00

Powered by AerisWeather